USA 485

导读

USA 485是美国于2025年1月21日发射的军用卫星,延续了美国自1984年起为多数军用卫星赋予“USA”编号的命名体系,该体系与苏联/俄罗斯“Kosmos”卫星命名体系相对应。 作为美国最新序号的军事卫星,USA系列卫星常承担侦察、通信、导航等涉密军事任务,多数细节未对外公开,其入轨将进一步增强美国天基军事体系的感知与支撑能力,是美国维持太空军事优势的最新部署。

基本信息
目录编号:
62756
目录名称:
USA 485
国际标识:
2025-014X
轨道中心:
EARTH
卫星名称:
USA 485
卫星全名:
USA 485
卫星状态:
在轨 (已飞行551 天)
发射日期:
2025-01-21 UTC
国别 :
美国 (US)
星等 :
--
轨道信息
数据来源 国际轨道数据
星历时间: 2026-07-25T19:48:22+0800
13小时前
查看轨道信息
半长轴: 6718.84km
偏心率: 0.0001577
轨道倾角: 42.999°
近地点辐角 264.237°
升交点赤经 238.053°
平近点角 95.832°
近地点: 339.643km
远地点: 341.763km
周期: 91.348分钟
每日圈数: 15.763815
详细信息
使用方式:
暂无
2D轨道图
3D轨道图
轨道高度分析图
轨道倾角分析图
轨道综合分析图
查看轨道综合分析图